DateTimeUTC,F1_A11,F1_S11,BsB_S11,BsG_S11,BsR_S11,BbsB_S11,BbsG_S11,BbsR_S11,BaB_A11,BaG_A11,BaR_A11,Tu_S11,T_S11,Uu_S11,U_S11,P_S11,T1_A11
2021-08-25T12:00:00Z,00000200,20000000,,,,,,,0000.07,-000.26,0000.11,19.2,25.8,09.1,06.1,0676.2,31.0
2021-08-25T12:01:00Z,00000200,20000000,,,,,,,-000.26,-000.11,-000.18,19.2,25.8,09.1,06.1,0676.2,31.1
2021-08-25T12:02:00Z,00000200,20000000,,,,,,,0000.02,0000.19,0000.12,19.2,25.8,09.1,06.1,0676.2,31.1
2021-08-25T12:03:00Z,00000200,60000000,,,,,,,0000.80,0000.87,0000.81,19.2,25.8,09.1,06.1,0676.2,31.1
2021-08-25T12:04:00Z,00000200,40000000,0005.09,0003.50,0002.52,0000.79,0000.66,0000.56,0000.56,0000.54,0000.13,19.3,25.7,08.9,06.1,0677.1,31.1
2021-08-25T12:05:00Z,00000200,00000000,0004.04,0003.44,0002.89,0000.07,0000.67,0000.42,0001.25,0000.95,0001.22,19.4,25.6,08.9,06.1,0677.2,31.1
2021-08-25T12:06:00Z,00000200,00000000,0005.14,0003.89,0002.57,0000.55,0000.81,0000.27,0000.44,0000.35,0000.15,19.4,25.6,08.9,06.1,0677.2,31.1
2021-08-25T12:07:00Z,00000200,00000000,0003.89,0003.64,0002.78,0000.83,0000.41,0000.16,0001.05,0001.25,0001.35,19.4,25.6,08.8,06.0,0677.1,31.1
2021-08-25T12:08:00Z,00000200,00000000,0005.13,0004.05,0003.01,0000.29,0000.61,0000.66,0000.38,0000.16,-000.38,19.4,25.6,08.9,06.1,0677.1,31.1
2021-08-25T12:09:00Z,00000200,00000000,0005.85,0003.90,0002.79,0000.94,0000.70,0000.61,0000.27,0000.05,0000.31,19.4,25.6,08.5,05.9,0677.1,31.1
2021-08-25T12:10:00Z,00000200,00000000,0005.28,0004.20,0002.86,0000.22,0000.48,0000.37,0000.99,0001.03,0000.80,19.4,25.6,08.3,05.7,0677.2,31.1
2021-08-25T12:11:00Z,00000200,00000000,0005.43,0004.56,0003.06,0000.43,0000.73,0000.58,0001.02,0001.32,0000.98,19.5,25.6,08.5,05.8,0677.2,31.1
2021-08-25T12:12:00Z,00000200,00000000,0004.82,0004.19,0002.77,0000.59,0000.84,0000.36,0001.57,0000.93,0001.00,19.5,25.6,08.5,05.8,0677.2,31.1
2021-08-25T12:13:00Z,00000200,00000000,0004.38,0004.11,0002.71,0000.40,0000.72,0000.57,0000.93,0001.37,0000.95,19.5,25.6,08.7,06.0,0677.2,31.1
2021-08-25T12:14:00Z,00000200,00000000,0005.79,0004.40,0003.11,0000.74,0000.49,0000.44,0000.39,0000.10,0000.41,19.4,25.6,08.7,06.0,0677.1,31.1
2021-08-25T12:15:00Z,00000200,00000000,0005.90,0004.50,0002.90,0000.74,0000.60,0000.39,0000.46,0000.77,0000.05,19.5,25.6,08.3,05.7,0677.1,31.1
2021-08-25T12:16:00Z,00000200,00000000,0005.38,0003.93,0002.83,0000.50,0000.71,0000.09,0001.59,0001.11,0001.43,19.4,25.6,08.2,05.6,0677.1,31.0
2021-08-25T12:17:00Z,00000200,00000000,0005.24,0004.31,0003.10,0000.44,0000.48,0000.60,0001.05,0000.89,0000.95,19.4,25.6,08.3,05.7,0677.2,31.0
2021-08-25T12:18:00Z,00000200,00000000,0005.03,0004.21,0003.28,0000.78,0000.50,0000.17,0001.76,0001.72,0001.12,19.4,25.6,08.7,05.9,0677.2,31.0
2021-08-25T12:19:00Z,00000200,00000000,0005.41,0004.49,0003.30,0000.92,0000.57,0000.96,0000.87,0000.62,0000.44,19.4,25.6,08.6,05.9,0677.1,31.1
2021-08-25T12:20:00Z,00000200,00000000,0004.71,0004.29,0003.08,0001.05,0000.37,0000.35,0001.51,0001.15,0001.44,19.4,25.6,08.8,06.0,0677.2,31.0
2021-08-25T12:21:00Z,00000200,00000000,0004.91,0004.49,0002.82,0001.07,0000.76,0000.43,0000.85,0001.28,0000.43,19.5,25.6,08.8,06.1,0677.2,31.1
2021-08-25T12:22:00Z,00000200,00000000,0005.37,0004.11,0003.17,0000.59,0000.69,0000.50,0001.09,0001.23,0000.84,19.5,25.6,08.9,06.1,0677.1,31.1
2021-08-25T12:23:00Z,00000200,00000000,0006.34,0004.44,0003.02,0000.29,0000.68,0000.67,0000.93,0000.71,0000.76,19.5,25.6,08.8,06.0,0677.2,31.0
2021-08-25T12:24:00Z,00000200,00000000,0005.72,0004.60,0002.92,0000.80,0001.00,0000.09,0000.81,0000.65,0000.68,19.4,25.6,08.8,06.0,0677.1,31.0
2021-08-25T12:25:00Z,00000200,00000000,0005.87,0004.91,0003.24,0001.05,0000.81,0000.67,0000.74,0000.71,0000.72,19.4,25.6,08.5,05.9,0677.1,31.0
2021-08-25T12:26:00Z,00000200,00000000,0005.32,0004.92,0003.50,0001.51,0000.75,0000.50,0001.36,0001.62,0000.90,19.4,25.6,08.7,05.9,0677.2,31.0
2021-08-25T12:27:00Z,00000200,00000000,0006.45,0004.83,0003.68,0000.62,0000.50,0000.53,0001.22,0000.75,0000.96,19.4,25.6,08.6,05.9,0677.2,31.1
2021-08-25T12:28:00Z,00000200,00000000,0006.83,0004.71,0003.56,0000.43,0000.29,0001.04,0000.90,0000.88,0000.42,19.4,25.6,08.6,05.9,0677.2,31.0
2021-08-25T12:29:00Z,00000200,00000000,0005.25,0004.51,0003.34,0000.86,0000.85,0000.71,0001.57,0001.45,0001.57,19.4,25.6,08.6,05.9,0677.2,31.0
2021-08-25T12:30:00Z,00000200,00000000,0006.00,0005.07,0003.44,0000.88,0000.89,0000.47,0000.77,0000.61,0000.49,19.4,25.6,08.4,05.8,0677.1,31.0
2021-08-25T12:31:00Z,00000200,00000000,0005.99,0005.25,0003.60,0000.39,0000.65,0000.53,0001.24,0001.48,0001.02,19.4,25.6,08.5,05.8,0677.2,31.0
2021-08-25T12:32:00Z,00000200,00000000,0006.04,0005.13,0003.56,0001.10,0000.73,0000.67,0001.24,0000.79,0000.97,19.4,25.6,08.6,05.9,0677.2,31.0
2021-08-25T12:33:00Z,00000200,00000000,0005.81,0004.94,0003.27,0000.31,0000.64,0000.40,0001.32,0001.31,0000.74,19.4,25.6,08.6,05.9,0677.2,31.0
2021-08-25T12:34:00Z,00000200,00000000,0006.11,0005.20,0003.56,0001.13,0001.04,0000.85,0001.07,0001.23,0000.75,19.4,25.6,08.5,05.8,0677.1,31.0
2021-08-25T12:35:00Z,00000200,00000000,0005.43,0005.45,0003.70,0001.25,0000.83,0000.80,0000.82,0000.50,0000.91,19.4,25.6,08.5,05.8,0677.1,31.0
2021-08-25T12:36:00Z,00000200,00000000,0006.48,0005.42,0003.59,0001.11,0000.52,0000.77,0000.83,0000.96,0000.70,19.4,25.6,08.2,05.7,0677.0,31.1
2021-08-25T12:37:00Z,00000200,00000000,0005.71,0005.26,0003.47,0000.50,0001.14,0000.49,0002.05,0001.79,0000.97,19.4,25.6,08.2,05.6,0677.1,31.1
2021-08-25T12:38:00Z,00000200,00000000,0006.80,0005.23,0003.61,0000.96,0000.28,0000.39,0001.24,0001.67,0001.54,19.4,25.6,08.6,05.9,0677.2,31.0
2021-08-25T12:39:00Z,00000200,00000000,0006.07,0005.11,0003.54,0000.83,0000.75,0000.60,0001.00,0000.61,0000.62,19.4,25.6,08.8,06.0,0677.2,31.0
2021-08-25T12:40:00Z,00000200,00000000,0005.43,0005.10,0003.45,0000.79,0000.60,0000.35,0001.11,0000.94,0000.78,19.4,25.6,08.7,05.9,0677.1,31.0
2021-08-25T12:41:00Z,00000200,00000000,0006.01,0004.28,0003.18,0000.78,0000.48,0000.33,0001.54,0001.30,0001.23,19.4,25.6,08.7,06.0,0677.2,31.0
2021-08-25T12:42:00Z,00000200,00000000,0006.79,0005.58,0003.48,0001.01,0000.78,0000.80,0000.76,0000.91,0000.91,19.4,25.5,08.8,06.0,0677.2,31.0
2021-08-25T12:43:00Z,00000200,00000000,0006.84,0004.93,0003.73,0001.42,0000.72,0000.82,0001.37,0001.15,0000.75,19.4,25.6,08.5,05.8,0677.1,31.0
2021-08-25T12:44:00Z,00000200,00000000,0006.35,0005.46,0004.10,0001.04,0000.91,0000.37,0001.13,0000.75,0000.77,19.4,25.6,08.4,05.8,0677.1,31.0
2021-08-25T12:45:00Z,00000200,00000000,0006.95,0005.58,0004.10,0000.63,0000.89,0000.93,0001.07,0001.50,0001.21,19.4,25.6,08.2,05.7,0677.1,31.1
2021-08-25T12:46:00Z,00000200,00000000,0006.12,0005.52,0003.43,0000.36,0000.86,0000.54,0001.75,0001.68,0001.24,19.4,25.6,08.5,05.8,0677.1,31.1
2021-08-25T12:47:00Z,00000200,00000000,0007.08,0005.25,0003.43,0000.39,0000.74,0000.47,0001.46,0001.25,0000.79,19.4,25.6,08.8,06.0,0677.2,31.0
2021-08-25T12:48:00Z,00000200,00000000,0006.77,0004.98,0003.18,0000.68,0000.71,0000.48,0001.22,0001.29,0001.23,19.4,25.6,08.9,06.1,0677.1,31.0
2021-08-25T12:49:00Z,00000200,00000000,0005.99,0004.92,0003.26,0001.10,0000.46,0000.32,0001.43,0001.32,0001.15,19.4,25.6,08.8,06.1,0677.1,31.0
2021-08-25T12:50:00Z,00000200,00000000,0005.88,0005.26,0003.43,0001.11,0000.76,0000.38,0000.60,0000.67,0000.49,19.4,25.6,08.8,06.1,0677.1,31.1
2021-08-25T12:51:00Z,00000200,00000000,0005.54,0004.57,0003.19,0000.61,0000.55,0000.71,0001.50,0001.19,0000.97,19.5,25.6,08.8,06.0,0677.1,31.1
2021-08-25T12:52:00Z,00000200,00000000,0005.85,0004.67,0003.04,0000.48,0000.75,0000.64,0001.34,0000.81,0001.02,19.5,25.6,08.8,06.1,0677.1,31.1
2021-08-25T12:53:00Z,00000200,00000000,0005.71,0004.77,0003.78,0000.97,0000.66,0000.60,0000.57,0001.19,0000.38,19.5,25.6,08.9,06.1,0677.1,31.1
2021-08-25T12:54:00Z,00000200,00000000,0005.84,0005.22,0003.45,0000.56,0000.84,0000.40,0001.16,0000.77,0001.05,19.5,25.6,08.8,06.1,0677.1,31.1
2021-08-25T12:55:00Z,00000200,00000000,0006.55,0005.25,0003.62,0000.73,0000.61,0000.45,0000.44,0000.86,0000.24,19.5,25.6,08.4,05.8,0677.0,31.1
2021-08-25T12:56:00Z,00000200,00000000,0005.79,0004.87,0003.69,0000.42,0000.56,0000.89,0001.34,0000.95,0001.28,19.5,25.6,08.2,05.7,0677.0,31.1
2021-08-25T12:57:00Z,00000200,40000000,,,,,,,0000.98,0000.71,0000.19,19.5,25.7,08.3,05.7,0677.1,31.1
2021-08-25T12:58:00Z,00000200,60000000,,,,,,,-000.31,-000.00,0000.22,19.3,25.7,08.5,05.7,0676.1,31.1
2021-08-25T12:59:00Z,00000200,20000000,,,,,,,0000.16,-000.21,-000.15,19.3,25.8,08.5,05.7,0676.1,31.1
